Satellite-Ground Cal/Val Site Overpasses Predictions

Prediction of Satellite NPP Overpassing Cal/Val Site: Antarctic Dome C

Ground Cal/Val Site Location: Latitude: -75.10, Longitude: 123.35; Satellite-Ground Site NADIR distance within 100 km.

Table of predicted overpasses for the next 14.0 days since TLE Epoch: 9/20/2019
Interval Starting Time Ending Time Minimum Distance Time Minimum Distance (km)
1 09/21/2019 15:01:37 09/21/2019 15:02:00 09/21/2019 15:01:48 59.50
2 09/22/2019 14:42:46 09/22/2019 14:43:11 09/22/2019 14:42:58 49.68
3 09/23/2019 07:44:27 09/23/2019 07:44:48 09/23/2019 07:44:37 69.65
4 09/24/2019 07:25:35 09/24/2019 07:26:02 09/24/2019 07:25:48 38.31
5 09/26/2019 15:08:02 09/26/2019 15:08:08 09/26/2019 15:08:05 97.03
6 09/27/2019 14:49:00 09/27/2019 14:49:29 09/27/2019 14:49:14 14.43
7 09/29/2019 07:31:49 09/29/2019 07:32:18 09/29/2019 07:32:04 3.07
8 10/02/2019 14:55:16 10/02/2019 14:55:45 10/02/2019 14:55:31 22.16
9 10/03/2019 14:36:33 10/03/2019 14:36:48 10/03/2019 14:36:41 84.99


NCC Satellite Cal/Val Overpasses Prediction Service
